Location: Overspoor
(51.4747°N, 5.6641°E)
Time: 14:34:47
(UTC+02:00)

RS-15 - Pass Details

Date: 27 June 2022
Orbit: 1881 x 2163 km, 64.8° (Epoch: 13 August)

Event Time Altitude Azimuth Distance (km) Brightness Sun altitude
Rises 01:53:43 0° 318° (NW) 5,697 11.2 -15.1°
Reaches altitude 10° 01:57:11 10° 317° (NW) 4,694 10.6 -15.1°
Maximum altitude 02:09:29 73° 237° (WSW) 2,219 8.2 -14.9°
Drops below altitude 10° 02:21:22 10° 156° (SSE) 4,552 9.5 -14.7°
Enters shadow 02:22:07 - 155° (SSE) 4,768 9.6 -14.6°
